DMSP 5D-2 F11 DEB, 28334

Orbit data source: Space-Track

DMSP 5D-2 F11 DEB, 28334 is space debris in SSO originally from a launch on Thu, 28 Nov 1991 UTC launched from the Air Force Western Test Range (AFWTR). Debris objects in space refer to the collection of defunct objects orbiting the Earth. Examples of debris include non-operational satellites, rocket bodies, and fragments generated from explosions, collisions, or faulty payload assembly.

Loading next visibility...
Identifier
28334, 1991-082AX
Orbit
SSO
Country
Flag of USUS
Related business
Manufacturer
Unknown
Mission
Spacecraft
Bus & Motor
Unknown
Mass
Unknown
Launch date (UTC)
1991-11-28 (35 years ago)
Launch vehicle
Unknown
Launch site
Air Force Western Test Range (AFWTR)
Object type
Payload
Rocket body
Debris
Shape & HBR
Unknown shape, 0.1 m
Radar Cross Section
Medium (>0.1 m² and <1 m²)

Expand to show TLE details & history
Last TLE update: 2 days ago

TLE from 2 days ago
0 DMSP 5D-2 F11 DEB
1 28334U 91082AX  26207.68958501  .00009585  00000-0  22449-2 0  9999
2 28334  98.8667 294.2066 0050023  89.6089 271.0838 14.54018192150162
Epoch: 2026-07-26T16:33Z
TLE epoch observation values (Epoch: 2026-07-26T16:33:00.144Z)
Latitude
-0°
Longitude
101.5721°
Altitude
715.017 km
Speed
7.498 km/s
True Right ascension
19h 36m 49s
True Declination
0° 00' 00"
Sunlit
Object was in full shadow at epoch
Visualization orbit readout
Latitude
Unknown
Longitude
Unknown
Altitude
Unknown
Speed
Unknown
Apparent Right ascension
Unknown
Apparent Declination
Unknown
Sunlit
N/A
Visualization observer readout
Local Sidereal Time
21:30:51
Azimuth
Unknown
Elevation
Unknown
Doppler factor
Unknown
Orbital elements
Apogee altitude
745.131 km
Perigee altitude
674.22 km
Semi-major axis
7,087.813 km
Eccentricity
0.005
Inclination
98.8667°
RAAN
294.2066°
Arg. of periapsis
89.6089°
True anomaly
270.51062°
Mean anomaly
271.0838°
Eccentric anomaly
270.79722°
Mean motion
3.63726 °/min
Orbital period
98.98 mins
BSTAR
0.0022449
Loading maneuver chart data...
Computing Atmospheric mass density...

Documentation

Showing up to 5 results
|